Location: Hamburg
(53.5500°N, 10.0000°E)
Time: 14:16:19
(UTC+02:00)

ISS - Visible Passes

Search period start: 27 May 2016 00:00
Search period end: 06 June 2016 00:00
Orbit: 402 x 404 km, 51.6° (Epoch: 27 May)

Date Brightness Start Highest point End Pass type
(mag) Time Alt. Az. Time Alt. Az. Time Alt. Az.
27 May -3.1 00:32:36 10° WSW 00:35:44 45° SSE 00:38:53 10° E visible
27 May -3.4 02:08:45 10° W 02:12:00 62° S 02:15:14 10° ESE visible
27 May -2.6 03:45:12 10° W 03:48:10 32° SSW 03:51:09 10° SE visible
27 May -2.7 23:40:05 10° SW 23:43:05 34° SSE 23:46:06 10° E visible
28 May -3.4 01:16:02 10° WSW 01:19:17 62° S 01:22:31 10° E visible
28 May -3.0 02:52:25 10° W 02:55:32 43° SSW 02:58:39 10° SE visible
28 May -2.3 22:47:44 10° SSW 22:50:29 25° SSE 22:53:14 10° E visible
29 May -3.3 00:23:21 10° WSW 00:26:34 57° S 00:29:47 10° E visible
29 May -3.3 01:59:39 10° W 02:02:51 53° SSW 02:06:04 10° ESE visible
29 May -2.1 03:36:19 10° W 03:38:53 21° SSW 03:41:27 10° SSE visible
29 May -3.1 23:30:43 10° WSW 23:33:53 48° SSE 23:37:03 10° E visible
30 May -3.4 01:06:55 10° W 01:10:09 61° S 01:13:23 10° ESE visible
30 May -2.5 02:43:23 10° W 02:46:18 30° SSW 02:49:12 10° SE visible
30 May -2.8 22:38:09 10° SW 22:41:13 37° SSE 22:44:16 10° E visible
31 May -3.4 00:14:11 10° W 00:17:25 63° S 00:20:40 10° E visible
31 May -2.9 01:50:33 10° W 01:53:40 40° SSW 01:56:20 13° SE visible
31 May -1.3 03:27:53 10° WSW 03:28:43 12° SW 03:28:43 12° SW visible
31 May -3.3 23:21:29 10° WSW 23:24:42 59° S 23:27:56 10° E visible
01 Jun -3.2 00:57:48 10° W 01:00:59 50° SSW 01:03:26 15° ESE visible
01 Jun -1.6 02:34:33 10° W 02:35:58 17° WSW 02:35:58 17° WSW visible
01 Jun -3.1 22:28:48 10° WSW 22:31:59 51° SSE 22:35:11 10° E visible
02 Jun -3.3 00:05:02 10° W 00:08:16 59° S 00:11:30 10° ESE visible
02 Jun -2.3 01:41:33 10° W 01:44:12 27° SSW 01:44:12 27° SSW visible
02 Jun -3.3 23:12:18 10° W 23:15:32 63° S 23:18:46 10° E visible
03 Jun -2.8 00:48:42 10° W 00:51:45 37° SSW 00:52:43 29° SSE visible
03 Jun -3.1 23:55:54 10° W 23:59:04 47° SSW 00:01:24 16° SE visible
04 Jun -1.3 01:32:46 10° WSW 01:33:59 15° WSW 01:33:59 15° WSW visible
04 Jun -3.2 23:03:07 10° W 23:06:21 57° S 23:09:34 10° ESE visible
05 Jun -2.2 00:39:42 10° W 00:42:26 25° SSW 00:42:44 24° SSW visible
05 Jun -2.5 23:46:48 10° W 23:49:48 34° SSW 23:51:33 19° SSE visible
